Weather History for Grand Marais, MN

Change the Weather History Date:

Wednesday, January 23, 2013

  Actual Average (KCKC) Record (KCKC)
Temperature  
Mean Temperature -3 °F -  
Max Temperature 3 °F 14 °F 35 °F (2015)
Min Temperature -9 °F 0 °F -27 °F (2011)
Degree Days  
Heating Degree Days 68    
Moisture  
Dew Point -13 °F    
Average Humidity 57    
Maximum Humidity 66    
Minimum Humidity 50    
Precipitation  
Precipitation 0.00 in - - ()
Sea Level Pressure  
Sea Level Pressure 30.33 in    
Wind  
Wind Speed 6 mph (NW)    
Max Wind Speed 17 mph    
Max Gust Speed 34 mph    
Averages and records for this station are not official NWS values.
T = Trace of Precipitation, MM = Missing Value Source: NWS Daily Summary

Daily Weather History Graph

Daily Weather History Graph

Search for Another Location

Airport:

Trip Planner

Search our weather history database for the weather conditions in past years. The results will help you decide how hot, cold, wet, or windy it might be!

Date:

Astronomy

Jan. 23, 2013 Rise Set
Actual Time 7:38 AM CST 4:48 PM CST
Civil Twilight 7:04 AM CST 5:22 PM CST
Nautical Twilight 6:26 AM CST 6:00 PM CST
Astronomical Twilight 5:50 AM CST 6:37 PM CST
Moon 1:55 PM CST (1/23) 4:53 AM CST (1/23)
Length of Visible Light 10h 18m
Length of Day
9h 10m
Waxing Gibbous, 89% of the Moon is Illuminated
Jan 23
Waxing Gibbous
Jan 26
Full
Feb 3
Last Quarter
Feb 10
New
Feb 17
First Quarter

Hourly Weather History & Observations

Time (CST) Temp. Windchill Dew Point Humidity Pressure Visibility Wind Dir Wind Speed Gust Speed Precip Events Conditions
12:56 AM -2.0 °F -13.9 °F -13.0 °F 60% 30.22 in - WSW 5.8 mph - N/A   Unknown
1:56 AM -0.9 °F -11.0 °F -11.9 °F 60% 30.22 in - Variable 4.6 mph - N/A   Unknown
2:56 AM -0.9 °F -14.1 °F -9.9 °F 66% 30.20 in - WSW 6.9 mph - N/A   Unknown
3:56 AM -0.0 °F -13.0 °F -9.9 °F 63% 30.19 in - SW 6.9 mph - N/A   Unknown
4:56 AM -0.0 °F -9.9 °F -9.9 °F 63% 30.17 in - Variable 4.6 mph - N/A   Unknown
5:56 AM -0.0 °F -7.9 °F -9.9 °F 63% 30.17 in - Variable 3.5 mph - N/A   Unknown
6:56 AM -0.0 °F -7.9 °F -9.0 °F 66% 30.15 in - Variable 3.5 mph - N/A   Unknown
7:56 AM 1.0 °F -6.7 °F -8.0 °F 66% 30.14 in - Variable 3.5 mph - N/A   Unknown
8:56 AM -0.0 °F -13.0 °F -11.0 °F 60% 30.13 in - Variable 6.9 mph - N/A   Unknown
9:56 AM 1.9 °F -7.6 °F -9.9 °F 58% 30.14 in - Variable 4.6 mph - N/A   Unknown
10:56 AM 1.9 °F - -9.9 °F 58% 30.16 in - Calm Calm - N/A   Unknown
11:56 AM 3.0 °F -9.3 °F -9.9 °F 55% 30.16 in - Variable 6.9 mph - N/A   Unknown
12:56 PM 3.9 °F -10.4 °F -11.0 °F 50% 30.18 in - North 9.2 mph - N/A   Unknown
1:56 PM 3.0 °F -6.4 °F -11.0 °F 52% 30.23 in - Variable 4.6 mph - N/A   Unknown
2:56 PM 1.9 °F -13.8 °F -13.0 °F 50% 30.29 in - North 10.4 mph 18.4 mph N/A   Unknown
3:56 PM 1.0 °F -15.8 °F -13.0 °F 52% 30.35 in - North 11.5 mph 29.9 mph N/A   Unknown
4:56 PM -0.9 °F -12.7 °F -15.0 °F 52% 30.44 in - Variable 5.8 mph - N/A   Unknown
5:56 PM -2.0 °F -15.4 °F -16.1 °F 51% 30.47 in - Variable 6.9 mph - N/A   Unknown
6:56 PM -2.0 °F -10.1 °F -14.1 °F 57% 30.50 in - Variable 3.5 mph - N/A   Unknown
7:56 PM -4.0 °F -16.3 °F -16.1 °F 56% 30.56 in - Variable 5.8 mph - N/A   Unknown
8:56 PM -7.1 °F - -18.9 °F 56% 30.61 in - Calm Calm - N/A   Unknown
9:56 PM -8.0 °F -16.9 °F -20.9 °F 53% 30.64 in - Variable 3.5 mph - N/A   Unknown
10:56 PM -9.9 °F -23.4 °F -20.9 °F 59% 30.65 in - Variable 5.8 mph - N/A   Unknown
11:26 PM -9.4 °F -31.4 °F -22.0 °F 54% 30.54 in - NNW 15.0 mph 34.5 mph N/A   Unknown
11:56 PM -9.9 °F -33.5 °F -23.1 °F 52% 30.65 in - NNW 17.3 mph 28.8 mph N/A   Unknown